{"data":{"norad_id":59502,"intl_designator":"2024-071U","name":"STARLINK-31357","alt_names":[],"object_type":"PAYLOAD","status":"ACTIVE","operator":null,"country":"US","launch_date":"2024-04-13","launch_site_code":"AFETR","launch_vehicle":null,"mission":null,"orbit_class":"UNKNOWN","rcs_meters":null,"size_class":null,"mass_kg":null,"dimensions":null,"purposes":["comms"],"wikipedia_slug":null,"has_3d_model":false,"image_url":null,"decayed_at":null,"tle_current":{"epoch":"2026-09-20T05:28:06.417120Z","epoch_age_seconds":188716,"freshness":"STALE","line1":"1 59502U 24071U   26263.22785205  .00009280  00000+0  34689-3 0  9996","line2":"2 59502  43.0058 321.4400 0001001 284.2016  75.8724 15.27527140137954","mean_motion":15.2752714,"eccentricity":0.0001001,"inclination_deg":43.0058,"raan_deg":321.44,"arg_perigee_deg":284.2016,"mean_anomaly_deg":75.8724,"bstar":0.00034689,"rev_number":13795,"period_min":94.270010809759,"perigee_km":482.52056188768,"apogee_km":483.89420303305,"semimajor_km":6861.3443824604,"source":"CELESTRAK","updated_at":"2026-09-22T09:00:48.960754Z"}}}